"SCET";"TARGET";"ELECTRON_DENSITY";"ERROR_FLAG";"ELECTRON_DENSITY_ERROR";"FREQ_FCE";"MEASURED_VALUE";"MEASURED_ITEM";"FREQ_PLASMA";"FREQ_UPPER_HYBRID";"FREQ_R_EQUALS_ZERO";"FREQ_L_EQUALS_ZERO";"ORBIT_NUMBER";"SATURN_RADIUS";"SATURN_IAU_LONGITUDE";"SATURN_SLS4_S_LONGITUDE";"SATURN_SLS4_N_LONGITUDE";"SATURN_SLS5_S_LONGITUDE";"SATURN_SLS5_N_LONGITUDE";"SATURN_LOCAL_TIME";"SATURN_KRONOGRAPHIC_LATITUDE";"SATURN_MAGNETIC_LATITUDE";"SATURN_L";"SATURN_L_OFFSET";"SATURN_SOLAR_EQUATORIAL_X";"SATURN_SOLAR_EQUATORIAL_Y";"SATURN_SOLAR_EQUATORIAL_Z";"SATURN_ALTITUDE";"ENCELADUS_ENCOUNTER_NUMBER";"ENCELADUS_RADIUS";"ENCELADUS_COROTATIONAL_X";"ENCELADUS_COROTATIONAL_Y";"ENCELADUS_COROTATIONAL_Z";"ENCELADUS_TRUE_ANOMALY";"ENCELADUS_PERIAPSIS_TIME";"JUPITER_RADIUS";"JUPITER_SYSTEMIII_LONGITUDE";"JUPITER_MAGNETIC_LATITUDE";"JUPITER_MAGNETIC_LOCAL_TIME";"JUPITER_L";"IO_PHASE";"EARTH_RADIUS";"EARTH_MAGNETIC_LATITUDE";"EARTH_LOCAL_TIME";"EARTH_L"
"[UTC]";"[0=Saturn, 1=Enceladus, 2=Jupiter, 3=Earth]";"[cm-3]";"[0=automated, 1=manual]";"[normalized density error]";"[Hz]";"[Hz]";"[0=upper hybrid frequency, 1=plasma frequency cutoff]";"[Hz]";"[Hz]";"[Hz]";"[Hz}";"[0, A, B, C, 3, 4, ... , 292, 293]";"[Rs where 1Rs=60268km]";"[degrees]";"[degrees]";"[degrees]";"[degrees]";"[degrees]";"[hours]";"[degrees]";"[degrees where offset=2293km north]";"[Rs where 1Rs=60268km]";"[Rs where 1Rs=60268km and offset=2293km north]";"[Rs where 1Rs=60268km]";"[Rs where 1Rs=60268km]";"[Rs where 1Rs=60268km]";"[km where ellipsoid a,b=60268km and c=54364km]";"[E0, E1, E2, ... , E21, E22]";"[Renc where 1Renc=252.1km]";"[Renc where 1Renc=252.1km]";"[Renc where 1Renc=252.1km]";"[Renc where 1Renc=252.1km]";"[degrees]";"[UTC]";"[Rj where 1Rj=71492km]";"[degrees]";"[degrees using JRM09 model]";"[hours using JRM09 model]";"[Rj where 1Rj=71492km]";"[degrees]";"[Re where 1Re=6378.1366km]";"[degrees]";"[hours]";"[Re where 1Re=6378.1366km]"
2008-04-20T19:59:17.268Z;0;7.1300e+00;0;     0.256;  5532.996;  24608.496; 0;  23978.408;  24608.496;  26903.971;  21370.975; 65;   4.827; 188.528; 107.120;  62.093;  99.009;  57.902;  22.550;  14.698;  14.260;   5.159;   4.813;  -4.337;   1.730;   1.225;;;;;;;;;;;;;;;;;;
2008-04-20T19:59:49.268Z;0;7.2370e+00;0;     0.344;  5532.996;  24783.924; 0;  24158.412;  24783.924;  27082.797;  21549.801; 65;   4.825; 188.785; 107.372;  62.352;  99.257;  58.155;  22.553;  14.619;  14.181;   5.153;   4.810;  -4.338;   1.726;   1.218;;;;;;;;;;;;;;;;;;
2008-04-20T20:00:21.268Z;0;6.7300e+00;0;     0.273;  5536.832;  23944.438; 0;  23295.484;  23944.438;  26227.822;  20690.990; 65;   4.822; 189.043; 107.625;  62.612;  99.506;  58.412;  22.556;  14.541;  14.102;   5.147;   4.808;  -4.338;   1.723;   1.211;;;;;;;;;;;;;;;;;;
2008-04-20T20:00:53.267Z;0;6.8270e+00;0;     0.315;  5536.832;  24107.219; 0;  23462.768;  24107.219;  26393.945;  20857.113; 65;   4.820; 189.300; 107.877;  62.871;  99.757;  58.670;  22.559;  14.462;  14.023;   5.141;   4.806;  -4.339;   1.719;   1.204;;;;;;;;;;;;;;;;;;
2008-04-20T20:01:25.267Z;0;7.0740e+00;0;     0.245;  5540.668;  24518.598; 0;  23884.359;  24518.598;  26814.822;  21274.154; 65;   4.818; 189.557; 108.130;  63.130; 100.007;  58.930;  22.562;  14.384;  13.944;   5.135;   4.804;  -4.340;   1.716;   1.197;;;;;;;;;;;;;;;;;;
2008-04-20T20:01:57.267Z;0;7.6830e+00;0;     0.318;  5540.668;  25499.855; 0;  24890.633;  25499.855;  27814.662;  22273.994; 65;   4.815; 189.815; 108.382;  63.389; 100.258;  59.189;  22.565;  14.305;  13.865;   5.128;   4.801;  -4.341;   1.712;   1.190;;;;;;;;;;;;;;;;;;
2008-04-20T20:02:29.267Z;0;7.5150e+00;0;     0.277;  5544.420;  25233.957; 0;  24617.311;  25233.957;  27545.121;  22000.701; 65;   4.813; 190.072; 108.635;  63.648; 100.508;  59.448;  22.568;  14.226;  13.786;   5.122;   4.799;  -4.341;   1.709;   1.183;;;;;;;;;;;;;;;;;;
2008-04-20T20:03:01.267Z;0;7.3820e+00;0;     0.333;  5548.004;  25021.252; 0;  24398.416;  25021.252;  27329.607;  21781.604; 65;   4.811; 190.329; 108.888;  63.907; 100.758;  59.708;  22.570;  14.147;  13.707;   5.116;   4.797;  -4.342;   1.705;   1.176;;;;;;;;;;;;;;;;;;
2008-04-20T20:03:33.266Z;0;7.6470e+00;0;     0.140;  5548.004;  25445.021; 0;  24832.816;  25445.021;  27761.275;  22213.271; 65;   4.808; 190.587; 109.140;  64.167; 101.009;  59.968;  22.573;  14.068;  13.628;   5.110;   4.794;  -4.343;   1.702;   1.169;;;;;;;;;;;;;;;;;;
2008-04-20T20:04:05.266Z;0;8.1970e+00;0;     0.262;  5551.728;  26302.867; 0;  25710.293;  26302.867;  28635.572;  23083.846; 65;   4.806; 190.844; 109.393;  64.426; 101.259;  60.229;  22.576;  13.989;  13.548;   5.104;   4.792;  -4.343;   1.698;   1.162;;;;;;;;;;;;;;;;;;
2008-04-20T20:04:37.266Z;0;8.3190e+00;0;     0.334;  5551.728;  26489.145; 0;  25900.832;  26489.145;  28825.020;  23273.291; 65;   4.804; 191.101; 109.645;  64.685; 101.509;  60.489;  22.579;  13.910;  13.469;   5.099;   4.790;  -4.344;   1.695;   1.155;;;;;;;;;;;;;;;;;;
2008-04-20T20:05:09.266Z;0;8.3180e+00;0;     0.309;  5555.452;  26488.367; 0;  25899.238;  26488.367;  28825.496;  23270.043; 65;   4.802; 191.359; 109.898;  64.944; 101.760;  60.750;  22.582;  13.831;  13.389;   5.093;   4.788;  -4.345;   1.691;   1.148;;;;;;;;;;;;;;;;;;
2008-04-20T20:05:41.265Z;0;8.4090e+00;0;     0.274;  5555.452;  26626.367; 0;  26040.361;  26626.367;  28965.818;  23410.365; 65;   4.799; 191.616; 110.150;  65.203; 102.010;  61.011;  22.585;  13.751;  13.309;   5.087;   4.786;  -4.346;   1.688;   1.141;;;;;;;;;;;;;;;;;;
2008-04-20T20:06:13.265Z;0;8.1770e+00;0;     0.308;  5559.484;  26274.148; 0;  25679.232;  26274.148;  28608.988;  23049.504; 65;   4.797; 191.873; 110.403;  65.462; 102.260;  61.273;  22.588;  13.672;  13.230;   5.081;   4.783;  -4.346;   1.684;   1.134;;;;;;;;;;;;;;;;;;
2008-04-20T20:06:45.265Z;0;8.5460e+00;0;     0.316;  5559.484;  26833.939; 0;  26251.713;  26833.939;  29178.215;  23618.732; 65;   4.795; 192.130; 110.655;  65.721; 102.511;  61.535;  22.590;  13.592;  13.150;   5.075;   4.781;  -4.347;   1.681;   1.127;;;;;;;;;;;;;;;;;;
2008-04-20T20:07:17.265Z;0;8.0970e+00;0;     0.280;  5563.376;  26151.039; 0;  25552.410;  26151.039;  28485.062;  22921.688; 65;   4.792; 192.388; 110.907;  65.980; 102.761;  61.797;  22.593;  13.513;  13.070;   5.069;   4.779;  -4.348;   1.677;   1.120;;;;;;;;;;;;;;;;;;
2008-04-20T20:07:49.264Z;0;7.9610e+00;0;     0.170;  5563.376;  25940.766; 0;  25337.170;  25940.766;  28271.098;  22707.721; 65;   4.790; 192.645; 111.160;  66.239; 103.011;  62.059;  22.596;  13.433;  12.990;   5.063;   4.777;  -4.348;   1.674;   1.113;;;;;;;;;;;;;;;;;;
2008-04-20T20:08:21.264Z;0;8.3620e+00;0;     0.330;  5566.988;  26557.623; 0;  25967.596;  26557.623;  28899.846;  23332.857; 65;   4.788; 192.902; 111.412;  66.498; 103.261;  62.322;  22.599;  13.353;  12.910;   5.058;   4.774;  -4.349;   1.670;   1.106;;;;;;;;;;;;;;;;;;
2008-04-20T20:08:53.264Z;0;8.2610e+00;0;     0.302;  5566.988;  26403.396; 0;  25809.844;  26403.396;  28742.998;  23176.010; 65;   4.786; 193.159; 111.665;  66.757; 103.512;  62.584;  22.602;  13.274;  12.830;   5.052;   4.772;  -4.349;   1.667;   1.099;;;;;;;;;;;;;;;;;;
2008-04-20T20:09:25.264Z;0;8.0120e+00;0;     0.196;  5570.432;  26021.387; 0;  25418.160;  26021.387;  28355.518;  22785.084; 65;   4.783; 193.417; 111.917;  67.016; 103.762;  62.848;  22.605;  13.194;  12.749;   5.046;   4.770;  -4.350;   1.663;   1.092;;;;;;;;;;;;;;;;;;
2008-04-20T20:09:57.264Z;0;9.1450e+00;0;     0.317;  5570.432;  27721.164; 0;  27155.723;  27721.164;  30083.396;  24512.965; 65;   4.781; 193.674; 112.170;  67.275; 104.012;  63.111;  22.608;  13.114;  12.669;   5.041;   4.768;  -4.351;   1.660;   1.085;;;;;;;;;;;;;;;;;;
2008-04-20T20:10:29.263Z;0;9.0150e+00;0;     0.219;  5573.456;  27532.812; 0;  26962.795;  27532.812;  29893.152;  24319.695; 65;   4.779; 193.931; 112.422;  67.534; 104.265;  63.372;  22.611;  13.034;  12.589;   5.035;   4.766;  -4.351;   1.656;   1.078;;;;;;;;;;;;;;;;;;
2008-04-20T20:11:01.263Z;0;9.2090e+00;0;     0.262;  5576.256;  27815.729; 0;  27251.057;  27815.729;  30181.443;  24605.188; 65;   4.777; 194.188; 112.674;  67.793; 104.518;  63.633;  22.613;  12.954;  12.508;   5.029;   4.763;  -4.352;   1.653;   1.071;;;;;;;;;;;;;;;;;;
2008-04-20T20:11:33.263Z;0;9.0430e+00;0;     0.304;  5576.256;  27573.898; 0;  27004.172;  27573.898;  29935.852;  24359.596; 65;   4.774; 194.445; 112.927;  68.052; 104.772;  63.894;  22.616;  12.873;  12.427;   5.024;   4.761;  -4.353;   1.649;   1.064;;;;;;;;;;;;;;;;;;
2008-04-20T20:12:37.262Z;0;9.0230e+00;0;     0.266;  5578.860;  27544.984; 0;  26974.107;  27544.984;  29907.383;  24328.523; 65;   4.770; 194.959; 113.431;  68.570; 105.280;  64.415;  22.622;  12.713;  12.266;   5.013;   4.757;  -4.354;   1.642;   1.050;;;;;;;;;;;;;;;;;;
2008-04-20T20:13:09.262Z;0;8.9910e+00;0;     0.169;  5581.744;  27499.658; 0;  26927.223;  27499.658;  29862.338;  24280.594; 65;   4.768; 195.217; 113.684;  68.829; 105.534;  64.676;  22.625;  12.632;  12.185;   5.007;   4.755;  -4.354;   1.639;   1.042;;;;;;;;;;;;;;;;;;
2008-04-20T20:13:41.262Z;0;1.0030e+01;0;     0.352;  5581.744;  28985.482; 0;  28442.967;  28985.482;  31370.434;  25788.689; 65;   4.766; 195.474; 113.936;  69.088; 105.788;  64.937;  22.628;  12.552;  12.104;   5.002;   4.753;  -4.355;   1.635;   1.035;;;;;;;;;;;;;;;;;;
2008-04-20T20:14:13.262Z;0;9.3250e+00;0;     0.272;  5584.852;  27984.344; 0;  27421.395;  27984.344;  30355.637;  24770.785; 65;   4.763; 195.731; 114.188;  69.347; 106.043;  65.198;  22.631;  12.471;  12.023;   4.996;   4.750;  -4.355;   1.632;   1.028;;;;;;;;;;;;;;;;;;
2008-04-20T20:14:45.262Z;0;9.7900e+00;0;     0.357;  5584.852;  28647.775; 0;  28098.121;  28647.775;  31028.965;  25444.113; 65;   4.761; 195.988; 114.440;  69.606; 106.299;  65.459;  22.634;  12.390;  11.942;   4.991;   4.748;  -4.356;   1.628;   1.021;;;;;;;;;;;;;;;;;;
2008-04-20T20:15:17.261Z;0;9.2690e+00;0;     0.233;  5587.820;  27904.453; 0;  27339.254;  27904.453;  30275.553;  24687.732; 65;   4.759; 196.245; 114.693;  69.864; 106.554;  65.719;  22.636;  12.309;  11.861;   4.986;   4.746;  -4.357;   1.625;   1.014;;;;;;;;;;;;;;;;;;
2008-04-20T20:15:49.261Z;0;1.0670e+01;0;     0.254;  5587.820;  29861.949; 0;  29334.490;  29861.949;  32261.150;  26673.330; 65;   4.757; 196.502; 114.945;  70.123; 106.810;  65.980;  22.639;  12.228;  11.780;   4.980;   4.744;  -4.357;   1.621;   1.007;;;;;;;;;;;;;;;;;;
2008-04-20T20:16:21.261Z;0;1.1090e+01;0;     0.247;  5591.012;  30423.861; 0;  29905.717;  30423.861;  32831.598;  27240.586; 65;   4.755; 196.759; 115.197;  70.382; 107.066;  66.241;  22.642;  12.147;  11.699;   4.975;   4.742;  -4.358;   1.618;   1.000;;;;;;;;;;;;;;;;;;
2008-04-20T20:16:53.261Z;0;1.0890e+01;0;     0.234;  5591.012;  30156.943; 0;  29634.133;  30156.943;  32561.203;  26970.189; 65;   4.752; 197.016; 115.449;  70.641; 107.322;  66.501;  22.645;  12.066;  11.617;   4.969;   4.740;  -4.358;   1.614;   0.993;;;;;;;;;;;;;;;;;;
2008-04-20T20:17:25.260Z;0;1.2680e+01;0;     0.217;  5594.568;  32460.664; 0;  31974.920;  32460.664;  34894.328;  29299.762; 65;   4.750; 197.273; 115.702;  70.900; 107.578;  66.762;  22.648;  11.985;  11.536;   4.964;   4.738;  -4.359;   1.610;   0.986;;;;;;;;;;;;;;;;;;
2008-04-20T20:17:57.260Z;0;1.1300e+01;0;     0.250;  5594.568;  30694.211; 0;  30180.049;  30694.211;  33106.691;  27512.123; 65;   4.748; 197.530; 115.954;  71.159; 107.835;  67.023;  22.651;  11.904;  11.454;   4.959;   4.735;  -4.359;   1.607;   0.979;;;;;;;;;;;;;;;;;;
2008-04-20T20:18:29.260Z;0;1.1230e+01;0;     0.244;  5598.124;  30606.109; 0;  30089.781;  30606.109;  33018.754;  27420.629; 65;   4.746; 197.787; 116.206;  71.417; 108.092;  67.284;  22.654;  11.823;  11.373;   4.954;   4.733;  -4.360;   1.603;   0.972;;;;;;;;;;;;;;;;;;
2008-04-20T20:19:01.260Z;0;1.1340e+01;0;     0.348;  5602.128;  30753.713; 0;  30239.164;  30753.713;  33169.684;  27567.555; 65;   4.744; 198.044; 116.458;  71.676; 108.350;  67.544;  22.657;  11.741;  11.291;   4.949;   4.731;  -4.360;   1.600;   0.965;;;;;;;;;;;;;;;;;;
2008-04-20T20:19:33.260Z;0;1.2800e+01;0;     0.301;  5602.128;  32614.305; 0;  32129.566;  32614.305;  35052.496;  29450.369; 65;   4.741; 198.301; 116.710;  71.935; 108.607;  67.805;  22.660;  11.660;  11.209;   4.943;   4.729;  -4.361;   1.596;   0.958;;;;;;;;;;;;;;;;;;
2008-04-20T20:20:05.259Z;0;1.1500e+01;0;     0.255;  5605.880;  30966.879; 0;  30455.240;  30966.879;  33386.895;  27781.014; 65;   4.739; 198.558; 116.962;  72.194; 108.864;  68.065;  22.662;  11.578;  11.127;   4.938;   4.727;  -4.361;   1.593;   0.951;;;;;;;;;;;;;;;;;;
2008-04-20T20:20:37.259Z;0;1.2730e+01;0;     0.262;  5605.880;  32525.756; 0;  32039.021;  32525.756;  34964.336;  29358.455; 65;   4.737; 198.815; 117.215;  72.452; 109.117;  68.323;  22.665;  11.497;  11.045;   4.933;   4.725;  -4.362;   1.589;   0.944;;;;;;;;;;;;;;;;;;
2008-04-20T20:21:09.259Z;0;1.3120e+01;0;     0.269;  5610.304;  33004.496; 0;  32524.164;  33004.496;  35450.062;  29839.758; 65;   4.735; 199.071; 117.467;  72.711; 109.369;  68.580;  22.668;  11.415;  10.963;   4.928;   4.723;  -4.362;   1.586;   0.937;;;;;;;;;;;;;;;;;;
2008-04-20T20:21:41.259Z;0;1.3530e+01;0;     0.254;  5610.304;  33507.969; 0;  33034.957;  33507.969;  35958.996;  30348.691; 65;   4.733; 199.328; 117.719;  72.970; 109.621;  68.837;  22.671;  11.333;  10.881;   4.923;   4.721;  -4.363;   1.582;   0.930;;;;;;;;;;;;;;;;;;
2008-04-20T20:22:13.258Z;0;1.3320e+01;0;     0.230;  5614.420;  33247.359; 0;  32769.883;  33247.359;  35697.113;  30082.691; 65;   4.731; 199.585; 117.971;  73.228; 109.872;  69.094;  22.674;  11.251;  10.799;   4.918;   4.719;  -4.363;   1.578;   0.923;;;;;;;;;;;;;;;;;;
2008-04-20T20:23:17.258Z;0;1.2960e+01;0;     0.301;  5620.020;  32814.625; 0;  32329.785;  32814.625;  35261.684;  29641.664; 65;   4.726; 200.099; 118.475;  73.746; 110.374;  69.607;  22.680;  11.087;  10.634;   4.908;   4.714;  -4.364;   1.571;   0.909;;;;;;;;;;;;;;;;;;
2008-04-20T20:25:25.257Z;0;1.2940e+01;0;     0.251;  5629.316;  32791.676; 0;  32304.873;  32791.676;  35241.918;  29612.602; 65;   4.718; 201.126; 119.483;  74.780; 111.375;  70.629;  22.691;  10.759;  10.304;   4.888;   4.706;  -4.366;   1.557;   0.880;;;;;;;;;;;;;;;;;;
2008-04-20T20:25:57.257Z;0;1.3010e+01;0;     0.239;  5629.316;  32874.980; 0;  32389.430;  32874.980;  35326.156;  29696.840; 65;   4.716; 201.383; 119.735;  75.039; 111.624;  70.884;  22.694;  10.676;  10.221;   4.883;   4.704;  -4.366;   1.553;   0.873;;;;;;;;;;;;;;;;;;
2008-04-20T20:26:29.257Z;0;1.3280e+01;0;     0.233;  5633.124;  33210.184; 0;  32728.951;  33210.184;  35666.480;  30033.357; 65;   4.714; 201.640; 119.987;  75.297; 111.874;  71.138;  22.697;  10.594;  10.138;   4.878;   4.702;  -4.366;   1.550;   0.866;;;;;;;;;;;;;;;;;;
2008-04-20T20:29:09.255Z;0;1.6050e+01;0;     0.197;  5645.080;  36421.227; 0;  35981.090;  36421.227;  38914.168;  33269.086; 65;   4.703; 202.923; 121.246;  76.590; 113.115;  72.406;  22.712;  10.180;   9.723;   4.855;   4.692;  -4.368;   1.532;   0.831;;;;;;;;;;;;;;;;;;
2008-04-20T20:29:41.255Z;0;1.5280e+01;0;     0.248;  5645.080;  35550.297; 0;  35099.242;  35550.297;  38035.086;  32390.006; 65;   4.701; 203.180; 121.498;  76.848; 113.362;  72.659;  22.715;  10.097;   9.640;   4.850;   4.690;  -4.369;   1.528;   0.824;;;;;;;;;;;;;;;;;;
2008-04-20T20:30:13.255Z;0;1.5800e+01;0;     0.236;  5649.392;  36135.965; 0;  35691.629;  36135.965;  38627.926;  32978.535; 65;   4.699; 203.436; 121.750;  77.107; 113.611;  72.914;  22.718;  10.014;   9.556;   4.845;   4.688;  -4.369;   1.525;   0.817;;;;;;;;;;;;;;;;;;
2008-04-20T20:30:45.255Z;0;1.5850e+01;0;     0.224;  5649.392;  36191.031; 0;  35747.379;  36191.031;  38683.504;  33034.109; 65;   4.697; 203.693; 122.002;  77.365; 113.864;  73.171;  22.720;   9.931;   9.473;   4.841;   4.686;  -4.369;   1.521;   0.810;;;;;;;;;;;;;;;;;;
2008-04-20T20:31:17.255Z;0;1.5980e+01;0;     0.213;  5653.256;  36338.152; 0;  35895.711;  36338.152;  38833.457;  33180.203; 65;   4.695; 203.950; 122.254;  77.624; 114.117;  73.430;  22.723;   9.848;   9.389;   4.836;   4.684;  -4.370;   1.517;   0.803;;;;;;;;;;;;;;;;;;
2008-04-20T20:31:49.254Z;0;1.6150e+01;0;     0.202;  5653.256;  36523.656; 0;  36083.488;  36523.656;  39020.660;  33367.406; 65;   4.693; 204.206; 122.506;  77.882; 114.370;  73.688;  22.726;   9.764;   9.306;   4.832;   4.682;  -4.370;   1.514;   0.796;;;;;;;;;;;;;;;;;;
2008-04-20T20:32:21.254Z;0;1.6460e+01;0;     0.206;  5656.812;  36863.820; 0;  36427.211;  36863.820;  39365.258;  33708.445; 65;   4.691; 204.463; 122.757;  78.140; 114.623;  73.947;  22.729;   9.681;   9.222;   4.827;   4.680;  -4.370;   1.510;   0.789;;;;;;;;;;;;;;;;;;
2008-04-20T20:32:53.254Z;0;1.6560e+01;0;     0.214;  5656.812;  36977.156; 0;  36541.902;  36977.156;  39479.605;  33822.793; 65;   4.689; 204.719; 123.009;  78.399; 114.877;  74.206;  22.732;   9.597;   9.138;   4.823;   4.678;  -4.371;   1.506;   0.781;;;;;;;;;;;;;;;;;;
2008-04-20T20:33:25.254Z;0;1.8370e+01;0;     0.242;  5660.564;  38903.652; 0;  38489.637;  38903.652;  41423.840;  35763.277; 65;   4.686; 204.976; 123.261;  78.657; 115.131;  74.465;  22.735;   9.514;   9.055;   4.818;   4.676;  -4.371;   1.503;   0.774;;;;;;;;;;;;;;;;;;
2008-04-20T20:33:57.253Z;0;1.9640e+01;0;     0.249;  5660.564;  40194.523; 0;  39793.941;  40194.523;  42724.746;  37064.184; 65;   4.684; 205.232; 123.513;  78.915; 115.385;  74.725;  22.738;   9.430;   8.971;   4.814;   4.674;  -4.371;   1.499;   0.767;;;;;;;;;;;;;;;;;;
2008-04-20T20:34:29.253Z;0;1.9770e+01;0;     0.245;  5664.820;  40325.449; 0;  39925.578;  40325.449;  42858.328;  37193.508; 65;   4.682; 205.489; 123.764;  79.174; 115.639;  74.984;  22.741;   9.346;   8.887;   4.809;   4.672;  -4.372;   1.496;   0.760;;;;;;;;;;;;;;;;;;
2008-04-20T20:35:01.253Z;0;1.9150e+01;0;     0.243;  5669.692;  39699.383; 0;  39292.438;  39699.383;  42229.414;  36559.723; 65;   4.680; 205.745; 124.016;  79.432; 115.894;  75.244;  22.744;   9.263;   8.803;   4.805;   4.670;  -4.372;   1.492;   0.753;;;;;;;;;;;;;;;;;;
2008-04-20T20:35:33.253Z;0;1.9890e+01;0;     0.232;  5669.692;  40452.531; 0;  40053.238;  40452.531;  42988.281;  37318.586; 65;   4.678; 206.002; 124.268;  79.690; 116.149;  75.505;  22.747;   9.179;   8.718;   4.800;   4.668;  -4.372;   1.488;   0.746;;;;;;;;;;;;;;;;;;
2008-04-20T20:36:05.253Z;0;2.0190e+01;0;     0.224;  5673.332;  40749.211; 0;  40352.344;  40749.211;  43288.590;  37615.258; 65;   4.676; 206.258; 124.519;  79.949; 116.404;  75.765;  22.750;   9.095;   8.634;   4.796;   4.666;  -4.372;   1.485;   0.739;;;;;;;;;;;;;;;;;;
2008-04-20T20:36:37.252Z;0;1.9950e+01;0;     0.225;  5673.332;  40512.203; 0;  40112.988;  40512.203;  43049.832;  37376.500; 65;   4.674; 206.515; 124.771;  80.207; 116.660;  76.026;  22.753;   9.011;   8.550;   4.792;   4.664;  -4.373;   1.481;   0.732;;;;;;;;;;;;;;;;;;
2008-04-20T20:37:09.252Z;0;2.3770e+01;0;     0.194;  5678.316;  44151.738; 0;  43785.074;  44151.738;  46716.184;  41037.871; 65;   4.672; 206.771; 125.023;  80.465; 116.916;  76.287;  22.755;   8.927;   8.465;   4.787;   4.662;  -4.373;   1.477;   0.725;;;;;;;;;;;;;;;;;;
2008-04-20T20:37:41.252Z;0;2.0360e+01;0;     0.202;  5678.316;  40914.184; 0;  40518.230;  40914.184;  43456.738;  37778.426; 65;   4.670; 207.028; 125.274;  80.723; 117.172;  76.549;  22.758;   8.843;   8.381;   4.783;   4.660;  -4.373;   1.474;   0.718;;;;;;;;;;;;;;;;;;
2008-04-20T20:38:13.252Z;0;2.3160e+01;0;     0.228;  5682.740;  43587.742; 0;  43215.711;  43587.742;  46150.391;  40467.648; 65;   4.668; 207.284; 125.526;  80.982; 117.428;  76.810;  22.761;   8.758;   8.296;   4.779;   4.658;  -4.373;   1.470;   0.711;;;;;;;;;;;;;;;;;;
2008-04-20T20:39:17.251Z;0;2.3180e+01;0;     0.211;  5687.248;  43608.910; 0;  43236.469;  43608.910;  46173.504;  40486.254; 65;   4.664; 207.797; 126.029;  81.498; 117.942;  77.334;  22.767;   8.590;   8.127;   4.771;   4.654;  -4.374;   1.463;   0.696;;;;;;;;;;;;;;;;;;
2008-04-20T20:39:49.251Z;0;2.3800e+01;0;     0.215;  5687.248;  44173.586; 0;  43805.945;  44173.586;  46741.770;  41054.520; 65;   4.662; 208.053; 126.280;  81.756; 118.199;  77.597;  22.770;   8.505;   8.042;   4.766;   4.652;  -4.374;   1.459;   0.689;;;;;;;;;;;;;;;;;;
2008-04-20T20:40:21.251Z;0;2.3750e+01;0;     0.211;  5692.960;  44131.473; 0;  43762.734;  44131.473;  46701.691;  41008.730; 65;   4.660; 208.309; 126.532;  82.014; 118.452;  77.858;  22.773;   8.421;   7.957;   4.762;   4.650;  -4.374;   1.455;   0.682;;;;;;;;;;;;;;;;;;
2008-04-20T20:41:25.250Z;0;2.3910e+01;0;     0.207;  5698.168;  44277.410; 0;  43909.223;  44277.410;  46850.645;  41152.477; 65;   4.656; 208.822; 127.035;  82.530; 118.955;  78.378;  22.779;   8.251;   7.788;   4.754;   4.646;  -4.375;   1.448;   0.668;;;;;;;;;;;;;;;;;;
2008-04-20T20:41:57.250Z;0;2.4010e+01;0;     0.195;  5698.168;  44365.039; 0;  43997.586;  44365.039;  46938.820;  41240.652; 65;   4.654; 209.078; 127.286;  82.788; 119.207;  78.638;  22.782;   8.167;   7.702;   4.750;   4.644;  -4.375;   1.444;   0.661;;;;;;;;;;;;;;;;;;
2008-04-20T20:42:29.250Z;0;2.4110e+01;0;     0.201;  5704.496;  44458.785; 0;  44091.297;  44458.785;  47035.703;  41331.207; 65;   4.652; 209.334; 127.538;  83.046; 119.457;  78.898;  22.785;   8.082;   7.617;   4.746;   4.642;  -4.375;   1.441;   0.654;;;;;;;;;;;;;;;;;;
2008-04-20T20:43:01.250Z;0;2.4560e+01;0;     0.220;  5708.920;  44865.367; 0;  44500.668;  44865.367;  47446.582;  41737.660; 65;   4.650; 209.591; 127.789;  83.304; 119.708;  79.158;  22.788;   7.997;   7.532;   4.742;   4.640;  -4.375;   1.437;   0.647;;;;;;;;;;;;;;;;;;
2008-04-20T20:43:33.249Z;0;2.6520e+01;0;     0.249;  5708.920;  46598.457; 0;  46247.426;  46598.457;  49189.895;  43480.973; 65;   4.648; 209.847; 128.041;  83.562; 119.958;  79.417;  22.791;   7.912;   7.447;   4.738;   4.638;  -4.375;   1.433;   0.640;;;;;;;;;;;;;;;;;;
2008-04-20T20:44:05.249Z;0;2.4770e+01;0;     0.204;  5713.904;  45057.590; 0;  44693.820;  45057.590;  47641.992;  41928.090; 65;   4.646; 210.103; 128.292;  83.820; 120.208;  79.677;  22.794;   7.827;   7.361;   4.734;   4.636;  -4.375;   1.430;   0.633;;;;;;;;;;;;;;;;;;
2008-04-20T20:44:37.249Z;0;2.4670e+01;0;     0.199;  5713.904;  44969.816; 0;  44605.332;  44969.816;  47553.684;  41839.781; 65;   4.644; 210.359; 128.543;  84.078; 120.457;  79.937;  22.797;   7.741;   7.276;   4.730;   4.635;  -4.376;   1.426;   0.625;;;;;;;;;;;;;;;;;;
2008-04-20T20:45:09.249Z;0;2.7630e+01;0;     0.231;  5719.392;  47549.754; 0;  47204.531;  47549.754;  50150.770;  44431.375; 65;   4.642; 210.615; 128.795;  84.336; 120.706;  80.197;  22.799;   7.656;   7.190;   4.726;   4.633;  -4.376;   1.422;   0.618;;;;;;;;;;;;;;;;;;
2008-04-20T20:46:45.248Z;0;2.4740e+01;0;     0.192;  5727.232;  45029.199; 0;  44663.492;  45029.199;  47618.816;  41891.582; 65;   4.636; 211.383; 129.549;  85.110; 121.452;  80.976;  22.808;   7.400;   6.933;   4.715;   4.627;  -4.376;   1.411;   0.597;;;;;;;;;;;;;;;;;;
2008-04-20T20:47:17.248Z;0;2.8060e+01;0;     0.217;  5733.756;  47914.023; 0;  47569.715;  47914.023;  50522.902;  44789.148; 65;   4.635; 211.640; 129.800;  85.368; 121.700;  81.236;  22.811;   7.314;   6.847;   4.711;   4.625;  -4.376;   1.408;   0.590;;;;;;;;;;;;;;;;;;
2008-04-20T20:47:49.248Z;0;2.7050e+01;0;     0.210;  5733.756;  47058.754; 0;  46708.141;  47058.754;  49662.918;  43929.160; 65;   4.633; 211.896; 130.051;  85.626; 121.948;  81.496;  22.814;   7.229;   6.762;   4.707;   4.623;  -4.376;   1.404;   0.583;;;;;;;;;;;;;;;;;;
2008-04-20T20:48:21.247Z;0;2.7260e+01;0;     0.188;  5739.916;  47231.527; 0;  46881.453;  47231.527;  49839.172;  44099.258; 65;   4.631; 212.152; 130.302;  85.884; 122.195;  81.756;  22.817;   7.143;   6.676;   4.703;   4.621;  -4.376;   1.400;   0.576;;;;;;;;;;;;;;;;;;